Portage Invitational 2018 vs Portage Invitational 2015

Aggregate Data Points
Difference This Meet That Meet
Overall Athletes -2136 2179 4315
Overall Average +4.45 21:29.52 21:25.07
1st-10th Place +21.74 15:30.97 15:09.23
1st-25th Place +26.24 15:51.96 15:25.72
1st-50th Place +26.37 16:09.41 15:43.04
1st-100th Place +28.32 16:29.86 16:01.54
Common Athletes -- -- 287
Ran Faster 71 179 108
Ran Season Best -121 6 127
Average Time -19.91 20:13.36 20:33.27
Median Time -12.60 19:52.40 20:05.00
Middle 80% Times -20.17 20:01.66 20:21.83
Top 10% Times -45.41 16:30.55 17:15.97
Top 25% Times -47.59 17:05.96 17:53.55
Top 50% Times -44.39 17:58.48 18:42.86
Bottom 50% Times +4.70 22:19.81 22:15.11
Bottom 25% Times +5.24 23:57.72 23:52.48
Bottom 10% Times +8.68 25:36.72 25:28.03
Average Difference -19.91 -- --
Median Difference +34.10 -- --
Middle 80% Difference -22.13 -- --
Top 10% Difference -32.31 -- --
Top 50% Difference -41.03 -- --
Top 25% Difference -36.38 -- --
Top 50% Difference -41.03 -- --
Bottom 50% Difference +1.58 -- --
Bottom 25% Difference +2.47 -- --
Bottom 10% Difference +7.63 -- --

Performances of Common Athletes
Athlete Team Difference This Meet That Meet
John Florence Ann Arbor Pioneer -1:45.00 15:39.60 17:24.60
Corey Gorgas Saugatuck -31.10 15:44.90 16:16.00
Carson Rabbitt Chelsea -1:04.40 16:05.00 17:09.40
Jesse Edelstein Ann Arbor Skyline -1:23.00 16:09.50 17:32.50
Ben Hylen Spring Lake -1:04.00 16:09.60 17:13.60
Sam Sharnas Holland Black River -1:27.70 16:11.60 17:39.30
Nicholas Couyoumjian Northville -16.40 16:14.70 16:31.10
Thomas Westrick Grand Rapids Forest Hills Eastern -1:22.80 16:14.70 17:37.50
Colten Covington Grant -58.40 16:15.50 17:13.90
Andrew Hylen Spring Lake +17.70 16:35.80 16:18.10
Foster Thorburn Chelsea -1:23.80 16:18.30 17:42.10
Simon Pfeiffer Saline -1:11.60 16:20.20 17:31.80
Luke Daniel Portage Northern -1:45.70 16:22.40 18:08.10
Will Peters Lansing Catholic -6.90 16:27.60 16:34.50
Cole Jensen Montague -1:24.50 16:29.00 17:53.50
Dominic Weatherwax Grand Haven -1:13.70 16:29.40 17:43.10
Andrew Periard East Grand Rapids -5.90 16:29.40 16:35.30
Jack Grimm Rockford -53.10 16:41.50 17:34.60
Jevin Nishioka Saline -1:03.60 16:44.10 17:47.70
Eric Warriner Lansing Catholic +9.10 16:56.50 16:47.40
Logan Williams Big Rapids -3:19.70 16:48.80 20:08.50
Cooper Clark Stevensville-Lakeshore -1:39.20 16:49.10 18:28.30
Nick Mckenzie Dexter -2:56.80 16:49.80 19:46.60
Lucas Betzoldt Dexter -1:13.00 16:51.40 18:04.40
Keegan Oldani Ann Arbor Skyline -1:34.00 16:52.70 18:26.70
Max Rathburn Portage Northern -1:03.60 16:54.20 17:57.80
Jake Reaume Temperance-Bedford +40.50 17:39.30 16:58.80
Christian Voetberg Grand Rapids Christian -1:10.90 16:59.70 18:10.60
Matthew Converse Zeeland West -2.10 17:00.30 17:02.40
Victor Chemjor Grandville -2:11.70 17:00.70 19:12.40
Ben Darmofal Mason -52.90 17:01.10 17:54.00
Seth Schafer Shepherd -1:14.00 17:04.20 18:18.20
Ethan Mielock Ann Arbor Pioneer -3.00 17:07.60 17:10.60
Dane Nestle Shepherd -4.40 17:08.60 17:13.00
Paul Sutton Ann Arbor Pioneer -1:19.70 17:09.80 18:29.50
Noah Scheffer Temperance-Bedford -14.10 17:09.90 17:24.00
Pedro Roman Benzie Central -50.90 17:12.70 18:03.60
Jack Zuidema Muskegon Western Michigan Christian -3:03.90 17:16.50 20:20.40
Connor Clemens Portage Northern -1:28.40 17:18.10 18:46.50
Eli Rotman Muskegon Western Michigan Christian -1:41.30 17:19.20 19:00.50
Evan Griffiths Berrien Springs -1:12.10 17:19.30 18:31.40
Casey Bouman Big Rapids -2:29.70 17:19.30 19:49.00
Duncan Taber Chagrin Falls -1:24.80 17:20.40 18:45.20
Keegan Aimesbury Battle Creek Lakeview -53.40 17:20.50 18:13.90
Marshall Sadowski Chagrin Falls -2:21.90 17:20.90 19:42.80
Chad Mccarthy Monroe +9.90 17:32.10 17:22.20
Caleb Riddering Grandville Calvin Christian -1:48.20 17:24.00 19:12.20
Tj Moore Mt. Pleasant Sacred Heart -37.10 17:24.20 18:01.30
Austin Savage Grand Ledge -1:15.30 17:25.00 18:40.30
Nolan Rich St. Joseph -1:28.50 17:28.40 18:56.90
Ryan Brummel Newaygo -1:10.50 17:29.40 18:39.90
Andrew Whitney Hart -50.60 17:29.40 18:20.00
Anthony Nykamp Grand Rapids South Christian -2:14.90 17:30.70 19:45.60
Noah Barnes Benzie Central -2:06.00 17:30.80 19:36.80
Alex Russo Kent City -3:43.70 17:31.90 21:15.60
Andrew Quaal Gaylord -1:20.40 17:32.00 18:52.40
Ericka Vanderlende Rockford -2:23.30 17:33.10 19:56.40
Dan Raush Hopkins -4.50 17:35.10 17:39.60
Adelyn Ackley Hart -13.30 17:35.40 17:48.70
Austin Wilson West Michigan Aviation Academy -1:05.30 17:36.20 18:41.50
Tyler Esch Ionia +1:32.30 19:09.10 17:36.80
Malachi Mills Grand Rapids West Catholic -6.50 17:36.90 17:43.40
Colin Chevalier Temperance-Bedford -4.30 17:38.70 17:43.00
Casey Carew Kent City -10.60 17:40.10 17:50.70
Chris Jenkins Grandville Calvin Christian -34.00 17:40.30 18:14.30
Carter Finch Bangor +49.70 18:31.40 17:41.70
Elijah Beson Bay City Western +12.40 17:55.10 17:42.70
Mark Crossman Benzie Central -2:09.70 17:44.40 19:54.10
Luke Tarr Potterville -1:45.00 17:46.60 19:31.60
Ben Moeggenberg Shepherd +7.60 17:56.20 17:48.60
Parker Reynolds North Muskegon -32.00 17:51.50 18:23.50
Aidan Jones Holland Black River +13.10 18:06.00 17:52.90
Xavier Addison Mt. Pleasant Sacred Heart +8.40 18:03.20 17:54.80
Matthew Vanderwall Spring Lake -1:04.40 17:55.20 18:59.60
Trent Stuewe Mason +4.30 17:59.90 17:55.60
Roy Bowman Jonesville -3:38.80 17:55.60 21:34.40
John Friebe Bay City Western -1:44.30 17:57.70 19:42.00
Jaden Gorsh Grandville -3:00.30 18:00.40 21:00.70
Colin Cooper Lansing Catholic +5.20 18:07.20 18:02.00
Amber Gall Shepherd -14.90 18:02.70 18:17.60
Matt Jaroneski Gaylord -42.10 18:03.00 18:45.10
Kullan Morgan East Kentwood -58.10 18:06.20 19:04.30
Eric Chavarria Wyoming Lee -3:39.20 18:07.40 21:46.60
Jack Kehoe Grandville Calvin Christian -1:10.60 18:07.80 19:18.40
Bryce Wright Grandville -1:35.40 18:09.00 19:44.40
Alex Seneca Mason +48.30 18:57.40 18:09.10
Ray Bartlett Saugatuck -1:50.70 18:09.60 20:00.30
Matthew Tomaszewski Grand Rapids Forest Hills Eastern -3:20.90 18:12.30 21:33.20
Mitchell Davidson Shepherd -2:02.40 18:13.10 20:15.50
Dan Hardesty Big Rapids -54.70 18:14.90 19:09.60
Jack Leech Spring Lake -2:37.90 18:16.50 20:54.40
Jacob Ball Grand Rapids Forest Hills Central -8.60 18:16.70 18:25.30
Ethan Chevalier Temperance-Bedford -1:20.90 18:20.20 19:41.10
Lauren Cleary Lansing Catholic -27.50 18:20.80 18:48.30
Eric Nordquist Parchment -25.90 18:23.20 18:49.10
Griffin Fortney Battle Creek Lakeview -25.30 18:23.90 18:49.20
Austin Bouma Hudsonville Unity Christian +14.40 18:40.60 18:26.20
Gabby Hentemann Grand Haven -2.70 18:26.30 18:29.00
Anders Bogard Kalamazoo Christian -18.90 18:27.20 18:46.10
Joel Blackburn Richland Gull Lake -39.30 18:27.70 19:07.00
Matthew Sparkman St. Joseph -1:22.60 18:27.70 19:50.30
Peyton Witt Portage Northern +27.40 18:55.40 18:28.00
Lucas Patin Rockford -3:20.40 18:28.10 21:48.50
Alex Boyd Mattawan -1:54.80 18:29.30 20:24.10
Anton Ludwig East Grand Rapids -27.10 18:31.80 18:58.90
Noah Doederlein Carleton Airport +18.90 18:52.10 18:33.20
William Schlaack Hart +2.80 18:43.60 18:40.80
Nathan Peabody Benzie Central +24.30 19:07.30 18:43.00
Connor Blesy Bridgman -1:08.20 18:44.30 19:52.50
Olivia Harp Northville +2:40.00 21:27.70 18:47.70
Ashton Pluchinsky Delton Kellogg -1:05.50 18:48.40 19:53.90
Jami Reed Grand Rapids Forest Hills Eastern +7.10 18:59.90 18:52.80
Lauren Freeland Kent City -33.40 18:54.30 19:27.70
Cammie Mcconnell Mt. Pleasant Sacred Heart +2:05.90 21:01.70 18:55.80
Connor Vanderwilt Grant +19.80 19:15.60 18:55.80
Jacob Freese Chagrin Falls -43.10 18:57.30 19:40.40
Colin Gilmour Portage Northern -31.80 18:59.30 19:31.10
Mitchell Turner Battle Creek Lakeview -21.20 19:01.30 19:22.50
Jarrett Buckner Bear Lake -4.50 19:01.80 19:06.30
Samantha Tran Grand Rapids Forest Hills Northern -21.50 19:02.50 19:24.00
Jacob Taber Benzie Central -3:33.70 19:05.60 22:39.30
Lane Everett St. Joseph +5.20 19:11.80 19:06.60
Emma Everhart - Deckard Rockford -2:53.10 19:07.20 22:00.30
Scout Nelson Mt. Pleasant Sacred Heart -26.00 19:08.50 19:34.50
Collin Carter Manton -38.10 19:08.60 19:46.70
Madison Hammer Big Rapids +2:19.20 21:29.10 19:09.90
Keagan Burns Battle Creek Pennfield -50.10 19:11.10 20:01.20
David Grodus Newaygo -1:14.70 19:11.60 20:26.30
Robert Kalnins Portage Northern -1:01.40 19:14.20 20:15.60
Makenzie Wank Richland Gull Lake +1:56.60 21:11.10 19:14.50
Laura Velderman Hopkins +1:50.50 21:06.30 19:15.80
Nick Jerman Shepherd -4:25.50 19:15.80 23:41.30
Meghan Langworthy Big Rapids -1:18.60 19:18.70 20:37.30
Sydney Nesbitt Bay City Western -19.10 19:19.60 19:38.70
Jared Alton Traverse City Grand Traverse Academy +32.30 19:52.40 19:20.10
Chris Bruinsma East Grand Rapids -3.50 19:20.40 19:23.90
Susannah Bennett Grand Rapids Forest Hills Central +1:34.70 20:59.00 19:24.30
Audrey Whiteside East Grand Rapids -9.90 19:25.40 19:35.30
Kathy Potter Coldwater -2:12.50 19:25.70 21:38.20
Jonathan Willison Kent City +28.60 19:54.40 19:25.80
Emma Woltjer Caledonia -29.40 19:25.80 19:55.20
Jake Pastoor Hopkins +2:16.50 21:44.00 19:27.50
Ian Calvert Hillsdale Academy -4:00.00 19:27.70 23:27.70
Rafael Vega Wyoming Lee -4:32.60 19:28.30 24:00.90
Ben Thompson Milan -4:11.70 19:28.60 23:40.30
Marnie Frost South Haven +1:39.40 21:08.10 19:28.70
Joe Shoup Constantine +10.90 19:47.00 19:36.10
Allyson Diebel Ionia +2:10.50 21:48.50 19:38.00
Hannah Hamilton Fremont -50.30 19:38.40 20:28.70
Spencer Noll Bridgman +1:27.60 21:07.90 19:40.30
Thea Johnson Saugatuck +3.10 19:45.10 19:42.00
Deziree Shaw Remus Chippewa Hills +32.10 20:14.60 19:42.50
Haley Hegenauer Shepherd +26.90 20:10.60 19:43.70
Cate Frost South Haven +3:50.20 23:34.40 19:44.20
Ben Jenkins Grandville Calvin Christian -16.20 19:45.00 20:01.20
Noah Lowe North Muskegon +3:15.10 23:00.50 19:45.40
Abby Buitenhuis Grand Haven -25.60 19:46.60 20:12.20
Austin Roberts Watervliet +1:04.90 20:51.60 19:46.70
Joe Ludlam Hopkins +2:26.00 22:13.40 19:47.40
Kaitlin Murray Dearborn Divine Child -1:20.70 19:47.60 21:08.30
Caleb Vanappledorn Holland Christian -46.20 19:50.80 20:37.00
Kendal Pluchinsky Delton Kellogg -17.90 19:54.90 20:12.80
Catherine Coffey Chagrin Falls -30.10 19:55.40 20:25.50
Rebekah Reisterer Portage Northern +1:39.50 21:35.60 19:56.10
Jodi Jenkins Grandville Calvin Christian +1:23.40 21:19.80 19:56.40
Nathan Kinne Middleville-Thornapple Kellogg -7.30 19:57.30 20:04.60
Kendra Fowler Fremont +26.60 20:24.40 19:57.80
Zachary Van Dyke Hudsonville Unity Christian -3.50 19:59.30 20:02.80
Sarah Vanderkooi Muskegon Western Michigan Christian +1:26.60 21:26.40 19:59.80
Cameron Fischer Holland Christian -1:26.80 19:59.80 21:26.60
Lauren Macdonald Mt. Pleasant Sacred Heart +34.10 20:37.60 20:03.50
Nick Espinoza Wyoming Lee +27.00 20:32.00 20:05.00
Sheila Witvliet Grandville Calvin Christian -1:24.40 20:05.40 21:29.80
Sofia Perez DeWitt -2:04.70 20:05.40 22:10.10
Claire Benedict Grand Rapids Forest Hills Eastern +1:53.00 21:59.00 20:06.00
Emily Monroe Milan +21.90 20:29.50 20:07.60
Henry Austin Allendale +1:24.40 21:32.00 20:07.60
Natalie Martinson Saugatuck -37.50 20:08.10 20:45.60
Ella Ryan Ann Arbor Pioneer +1:44.20 21:54.40 20:10.20
Luca Leffew Bear Lake -1:38.30 20:11.10 21:49.40
Jp Dejak Ann Arbor Gabriel Richard +14.70 20:26.20 20:11.50
Jenna Brewer Grandville +2:58.20 23:11.30 20:13.10
Samantha Schmidt Fremont -23.20 20:13.20 20:36.40
Emma Pachay Marcellus +51.70 21:05.20 20:13.50
Mallory Dawes Ann Arbor Pioneer +2.80 20:17.30 20:14.50
Sierra Pallin Benzie Central +10.50 20:25.90 20:15.40
Brendon Patmalnieks Constantine +1:13.00 21:29.60 20:16.60
Allison Rand Jackson Lumen Christi -47.20 20:20.90 21:08.10
Noah Sweet Grass Lake +4:10.20 24:35.80 20:25.60
Dawson Ingersoll Creative Technical Academy +39.30 21:10.50 20:31.20
Jessie Rieth Three Oaks-River Valley +27.50 20:59.20 20:31.70
Jacob King Remus Chippewa Hills +2:06.30 22:38.10 20:31.80
Jasmine Fisher Hopkins +8.50 20:41.90 20:33.40
Alaysia Gutierrez Concord +3:35.80 24:09.20 20:33.40
Alicia Estrella Grandville Calvin Christian -10.20 20:34.40 20:44.60
Andrew Pachay Marcellus -1:50.10 20:38.40 22:28.50
Allison Collins Hastings -23.10 20:39.00 21:02.10
Tyler Overholt Centreville +55.20 21:34.90 20:39.70
Hunter Bierema Vicksburg -1:54.60 20:40.10 22:34.70
Morgan Lyon Traverse City West -4.00 20:41.10 20:45.10
Grace Klemmer Leslie +2:18.60 23:00.80 20:42.20
Daniel Burris Parchment -2:18.50 20:44.30 23:02.80
Erin Vimr Hartland -14.70 20:48.90 21:03.60
Eden Vanderweele Grand Rapids South Christian +1:33.30 22:23.80 20:50.50
Grace Hoekema Grandville +1:20.40 22:16.60 20:56.20
Carly Postma Caledonia -12.80 20:57.30 21:10.10
Lauren Sinnaeve Mason -25.40 21:00.90 21:26.30
Eric Swager Galesburg-Augusta +1:11.60 22:12.70 21:01.10
Grace Kelley Saint Joseph Academy -2:03.20 21:04.60 23:07.80
Sophie Moccio Milan +43.80 21:49.50 21:05.70
Avery Truex Battle Creek Lakeview +1:34.00 22:42.70 21:08.70
Peyton Burch Benzie Central +1:08.50 22:18.00 21:09.50
Lindsey Stone Kalamazoo Hackett +21.80 21:37.20 21:15.40
Kara Crofoot Traverse City West -23.40 21:15.80 21:39.20
Katelyn Hillier Kingsley +1:49.70 23:08.90 21:19.20
Anna Haseley Hudsonville -7.70 21:21.80 21:29.50
Allison Hoop Jackson Lumen Christi -32.20 21:23.40 21:55.60
Sarah Grimes Richland Gull Lake -1:10.00 21:25.00 22:35.00
Ambria Druelle Grand Rapids West Catholic +1:27.30 22:55.60 21:28.30
Leah Vanorman Grand Rapids Christian +35.60 22:04.60 21:29.00
Blake Mueller Bay City Western -4:04.90 21:31.70 25:36.60
Megan Dopheide Lawton -15.10 21:33.10 21:48.20
Ashley Parker Manton +2:10.10 23:43.30 21:33.20
Elizabeth Penrice Spring Lake -1:24.10 21:34.20 22:58.30
Josie Aardema Muskegon Western Michigan Christian -2.30 21:36.10 21:38.40
Madison Grover Remus Chippewa Hills -38.30 21:37.60 22:15.90
Katrina Lesinski Ludington +25.40 22:03.30 21:37.90
Brianna Francis Carleton Airport +1:35.60 23:15.70 21:40.10
Alyssa May Grand Rapids West Catholic +2:07.60 23:49.50 21:41.90
Kody Gould Marlette +1:02.30 22:45.40 21:43.10
Nathan Carper Constantine -34.00 21:43.40 22:17.40
Kyle Mckenzie Marcellus -3:21.80 21:43.70 25:05.50
Ana Dekruyter Zeeland West +12.90 21:58.80 21:45.90
Phoebe Stroobosscher Grand Rapids Christian -2:04.30 21:46.20 23:50.50
AnaLi Warners Grand Rapids Christian -1:21.00 21:46.20 23:07.20
Nicolas Williams North Muskegon -2:17.10 21:46.40 24:03.50
Alicia Robertson Remus Chippewa Hills -58.90 21:50.30 22:49.20
Jacob Miller Centreville +8.30 22:03.30 21:55.00
Kaitlin Essig Bridgman +34.20 22:29.50 21:55.30
Sammi Poliak Portage Central +1:03.90 22:59.90 21:56.00
Emily Peterson Ionia -11.60 22:00.70 22:12.30
Cassie Stersic Byron Center +2:03.50 24:09.20 22:05.70
Kyrstyn Cieply Holland Black River -1:32.40 22:05.80 23:38.20
Delaney Kirinovic DeWitt -17.50 22:07.30 22:24.80
Emma Helder Hopkins -11.10 22:12.50 22:23.60
Ainsley Vanderlaan Grand Ledge +1:23.60 23:37.50 22:13.90
Ashley Zwiers Grand Rapids Christian +31.20 22:52.70 22:21.50
Terra Rapp Grass Lake +1:33.10 23:56.20 22:23.10
Emma Pilnick Portage Northern -34.70 22:30.90 23:05.60
Grant Walker Leslie -5:08.60 22:31.80 27:40.40
Enrique Martinez Wyoming Lee +7.20 22:41.20 22:34.00
Laisha Ramirez Bangor +1:31.20 24:06.80 22:35.60
Natalie Halsey Potterville -1:29.60 22:43.20 24:12.80
Sadie Wiegers Grand Rapids NorthPointe Christian +5:22.10 28:12.80 22:50.70
Parker Kirwin Walkerville -1:04.20 22:51.70 23:55.90
Libby Jensen Hastings +1:58.40 24:51.20 22:52.80
Savanna Tate Bridgman -6.40 22:57.20 23:03.60
Angela Warsecke Benzie Central +39.30 23:39.70 23:00.40
Sebastian Gamet Concord -6.00 23:03.90 23:09.90
Sidney Wheeler Bridgman +3:23.00 26:44.60 23:21.60
Sophie Weitzel Lansing Catholic +11.00 23:33.50 23:22.50
Genevieve Soltis Jackson Lumen Christi -44.60 23:27.50 24:12.10
Jared Bowman Hopkins -17.90 23:28.60 23:46.50
Taylor Lound Hart +43.00 24:11.70 23:28.70
Hannah Austin Delton Kellogg +46.00 24:20.50 23:34.50
Brittany Medcoff Leslie -23.20 23:34.80 23:58.00
Ben Sampley Schoolcraft +42.10 24:17.20 23:35.10
Hayley May Bear Lake +2:01.00 25:44.40 23:43.40
Autumn Fitzsimmons Schoolcraft -14.80 23:44.10 23:58.90
Marlen Barajas Bangor +2:25.90 26:14.70 23:48.80
Amy Steinkraus Marcellus -1:59.00 23:58.80 25:57.80
Rebecca Collins-pf Mt. Pleasant Sacred Heart +1:04.70 25:06.70 24:02.00
Lexi Bainbridge Marcellus +14.20 24:24.60 24:10.40
Alivia Mccombs Marlette +3:28.00 27:44.90 24:16.90
Alilyn Purcell New Buffalo -1:18.20 24:23.90 25:42.10
Ashley Jankowski Parchment -2:05.20 24:34.50 26:39.70
Hannah Crouch Hopkins -1:07.50 24:37.40 25:44.90
Hailey Wildenhaus Jackson Lumen Christi +2:55.40 27:33.40 24:38.00
Billy Lowe North Muskegon +1:13.90 26:02.70 24:48.80
Olivia Nelson Grandville Calvin Christian -2:14.30 24:59.90 27:14.20
Gretchen Birzer Hillsdale Academy -1:01.90 25:23.10 26:25.00
Clay Davis Kent City -3:11.60 25:45.90 28:57.50
Genel Homister Delton Kellogg +1:18.60 27:06.10 25:47.50
Meagan Herlein Constantine +1:31.90 27:24.10 25:52.20
Gracie Bowers Three Rivers -41.70 25:53.60 26:35.30
Lilly Hendershot Schoolcraft -2:05.70 27:16.70 29:22.40
Alexis Zawodny Marlette +56.00 28:50.40 27:54.40